Regional Weather Roundup
Issued by NWS Wakefield, VA

Home | Current Version | Previous Version | Graphics & Text | Print | Product List | Glossary On
Versions: 1 2 3 4 5 6 7 8 9 10 11 12 13 14 15 16 17 18 19 20 21 22 23 24 25 26 27 28
000
ASUS41 KAKQ 150815
RWRAKQ

REGIONAL WEATHER ROUNDUP
NATIONAL WEATHER SERVICE WAKEFIELD VA
300 AM EST SUN JAN 15 2017

Note: "fair" indicates few or no clouds below 12,000 feet with no
significant weather and/or obstructions to visibility. * = Denotes
station may not report precipitation (e.g., rain,snow,etc.),
thunder or fog.

VAZ042-051-052>054-056-150900-
NORTHERN VIRGINIA

CITY           SKY/WX    TMP DP  RH WIND       PRES   REMARKS
WASH NATIONAL  CLOUDY    37  35  92 NW8       30.32S
DULLES         CLOUDY    35  33  92 N5        30.31R FOG
FORT BELVOIR   CLOUDY    37  35  93 NW3       30.31S
QUANTICO       CLOUDY    37  37 100 N3        30.33R
FREDERICKSBRG* CLOUDY    37  37 100 CALM      30.30S FOG
STAFFORD*      CLOUDY    35  35 100 CALM      30.35R FOG
WARRENTON      CLOUDY    37  34  90 CALM      30.30R FOG
CULPEPER*      CLOUDY    36  36 100 CALM      30.32R FOG
MANASSAS*      NOT AVBL
LEESBURG*      CLOUDY    36  36 100 NW7       30.33R FOG
WINCHESTER     CLOUDY    32  32 100 CALM      30.31R FOG
FRONT ROYAL*   NOT AVBL
LURAY*         CLOUDY    36  36 100 CALM      30.30R
$$

VAZ048-049-060>072-079>083-150900-
CENTRAL AND SOUTH CENTRAL VIRGINIA

CITY           SKY/WX    TMP DP  RH WIND       PRES   REMARKS
RICHMOND       CLOUDY    40  40 100 NE7       30.29R
CHESTERFIELD*  FAIR      37  23  56 CALM      30.30R
PETERSBURG*    CLEAR     37  37 100 CALM      30.30R FOG
HANOVER        CLOUDY    38  36  92 N7        30.32R FOG
TAPPAHANNOCK*  CLOUDY    38  38 100 CALM      30.30F FOG
QUINTON*       CLOUDY    40  40 100 MISG      30.29S
CHARLOTTSVILLE FOG       39  38  96 N3        30.28R VSB 1/2
GORDONSVILLE*  CLOUDY    37  37 100 E3        30.28F FOG
ORANGE*          N/A     36  36 100 CALM      30.31S FOG
LOUISA*        CLOUDY    39  39 100 NE5       30.28S FOG
BUMPASS*       CLOUDY    36  36 100 CALM      30.30R
FARMVILLE*     PTCLDY    41  40  93 N5        30.27R
CREWE*         PTSUNNY   37  37 100 CALM      30.27R
FORT PICKETT*  FAIR      38  35  88 CALM      30.27S
CHASE CITY*    FAIR      40  39  95 CALM      30.27R
CLARKSVILLE*   FAIR      39  39 100 CALM      30.26S
SOUTH HILL*    CLOUDY    39  39 100 CALM      30.32S
LAWRENCEVILLE* CLOUDY    43  41  93 CALM      30.27R
EMPORIA*       CLOUDY    41  41 100 CALM      30.29S
$$

VAZ088>098-150900-
SOUTHEAST VIRGINIA

CITY           SKY/WX    TMP DP  RH WIND       PRES   REMARKS
NORFOLK        CLOUDY    41  38  89 NE8       30.29R
VIRGINIA BEACH CLOUDY    40  37  89 N6        30.29R
NORFOLK NAVAL  CLOUDY    41  37  87 NE8       30.31R
WEST POINT*    CLOUDY    39  38  97 CALM      30.32S
SALUDA*        CLOUDY    38  38 100 CALM      30.30S
NEWPORT NEWS   CLOUDY    40  39  97 E5        30.30R
LANGLEY AFB    CLOUDY    40  40  99 NE6       30.29S
FORT EUSTIS    CLOUDY    42  39  91 CALM      30.27S
WILLIAMSBURG*  CLOUDY    43  43 100 CALM      30.30S
HR EXEC AP*    CLOUDY    43  39  87 CALM      30.29R
FRANKLIN*      CLOUDY    43  41  92 CALM      30.29S
US460-WAKEFLD  PTCLDY    40  39  97 CALM      30.29R FOG
$$

VAZ020-022-025-037-045-150900-
WEST CENTRAL AND SOUTHWEST VIRGINIA

CITY           SKY/WX    TMP DP  RH WIND       PRES   REMARKS
STAUNTON*      CLOUDY    39  37  92 N5        30.29R
WAYNESBORO*    CLOUDY    39  37  94 CALM      30.26R
HOT SPRINGS VA FOG       36  36 100 W13       30.22R VSB 1/4
LYNCHBURG      MOCLDY    40  37  89 CALM      30.27R
DANVILLE       MOCLDY    43  40  89 SW3       30.26R
SOUTH BOSTON*  PTSUNNY   43  40  88 CALM      30.27R
MARTINSVILLE   CLOUDY    46  43  90 CALM      30.28S
ROANOKE        MOCLDY    43  41  93 CALM      30.27R
BLACKSBURG     CLOUDY    50  49  97 W3        30.29S
DUBLIN*        CLOUDY    53  50  90 W9        30.28S
MARION*        CLOUDY    55  52  92 W12G20    30.30R
HILLSVILLE*    CLOUDY    55  54  95 NW9       30.25S
RICHLANDS*     FOG      N/A N/A N/A NW5       30.31S VSB 1/4
WISE*          FOG       50  50 100 CALM      30.32F VSB 1/4
ABINGDON*      CLOUDY    58  57  96 W7        30.30S
$$

MDZ021>025-VAZ099-100-150900-
SOUTHERN MARYLAND AND THE DELMARVA PENINSULA

CITY           SKY/WX    TMP DP  RH WIND       PRES   REMARKS
PATUXENT RIVER CLOUDY    36  36 100 CALM      30.29F
BAY BRIDGE APT CLOUDY    34  32  93 N5        30.31S FOG
LEONARDTOWN    CLOUDY    36  34  93 CALM      30.31S
DOVER          CLOUDY    34  34 100 NW7       30.30R
GEORGETOWN     CLOUDY    37  35  92 N5        30.29F
EASTON         CLOUDY    36  33  92 N6        30.34S FOG
CAMBRIDGE      CLOUDY    34  34 100 N6        30.29F
SALISBURY      CLOUDY    37  36  96 CALM      30.28F
OCEAN CITY     CLOUDY    38  38 100 NW3       30.28F
WALLOPS ISLAND CLOUDY    38  38 100 NW3       30.29F
ACCOMACK*      CLOUDY    39  38  96 CALM      30.29F
$$

NCZ012>017-030>032-150900-
NORTH CENTRAL AND EASTERN NORTH CAROLINA

CITY           SKY/WX    TMP DP  RH WIND       PRES   REMARKS
ROANOKE RAPIDS FAIR      43  41  93 CALM      30.28R
RALEIGH        PTCLDY    41  37  86 SW6       30.28S
ELIZABETH CITY CLOUDY    44  43  96 NW5       30.30R
AHOSKIE*         N/A     43  41  93 CALM      30.29R
EDENTON*       CLOUDY    46  45  93 CALM      30.30R FOG
CURRITUCK*     CLOUDY    43  43  99 CALM      30.30R
KILL DEVIL HLS NOT AVBL
MANTEO         CLOUDY    43  43 100 NW5       30.29R FOG
CAPE HATTERAS  FOG       47  45  93 NW7       30.29R VSB 1/2
TARBORO*       NOT AVBL
GOLDSBORO      CLOUDY    43  43 100 CALM      30.27F
WASHINGTON     CLOUDY    45  43  93 CALM      30.29S
GREENVILLE     CLOUDY    45  43  93 CALM      30.29S
NEW BERN       PTCLDY    43  41  93 CALM      30.30F
WILMINGTON     CLOUDY    44  43  96 CALM      30.30S
$$

VAZ048-150900-
ELSEWHERE

CITY           SKY/WX    TMP DP  RH WIND       PRES   REMARKS
HARRISBURG PA  CLOUDY    31  30  96 NW6       30.32R FOG
BALTIMORE      MOCLDY    33  33 100 NW3       30.31R FOG
ANNAPOLIS      CLOUDY    36  33  89 N6        30.31S FOG
ANDREWS AFB    CLOUDY    35  33  95 N5        30.30R FOG
PHILADELPHIA   CLOUDY    33  29  85 NW6       30.31F
GREENSBORO     PTCLDY    44  39  82 SW7       30.26R
ROCKY MOUNT    CLOUDY    42  41  96 SW3       30.28S
$$

VAZ100-150900-
MARINE

STATION/POSITION TIME  TEMP    WIND        PRES    WAVE   SWELL
                       AIR SEA DIR/SP/G            HT/PER HT/PER
                 (UTC) (F)     (DEG/KT/KT) (MB)    (FT/S) (FT/S)
CAPE MAY NJ      0748   35 40  350/  3/  6 1025.3F
LEWES DE         0748      42  340/ 10/ 11 1025.6F
OCEAN-CITY-INLET 0748      42  340/  3/  4 1025.8F
WACHAPREAGUE VA  0748   39 43   CALM  /  2 1025.6F
THOMAS POINT MD  0800   34 38  360/  6/  8   N/A
GOOSES REEF MD   0750   36      30/  8/ 10 1026.7F
COVE POINT MD    0748   35     350/  7/  9 1026.5F
SOLOMONS ISLAND  0748      40  320/  3/  3   N/A
BISHOPS HEAD MD  0748   37 39  290/  3/  3 1025.9F
PINEY POINT MD   0748          240/  2/  2   N/A
POTOMAC MD       0750   37      CALM  /  2 1024.8F
CAMBRIDGE MD     0748   36 38  340/  7/  8 1025.4F
LEWISETTA VA     0748   38 42  290/  3/  3 1025.7F
RAPPAHANNOCK LGT 0748           20/ 10/ 11 1026.4F
STINGRAY PT      0750   38      30/ 10/ 12 1026.3F
YORK RVR RNG VA  0748   39      40/  5/  5 1025.3S
YORKTOWN VA      0748   40 41   50/  5/  6 1025.7R
JAMESTOWN VA     0750   41      60/  4/  4   N/A
DOMINION TERM VA 0748   42      60/  4/  5 1025.9R
KIPTOPEKE VA     0748      42   20/  4/  6   N/A
CHES BAY BRIDGE  0748   40 42   20/  9/ 10 1025.9R
CAPE HENRY VA    0748   40     350/  8/  9   N/A
WILLOUBY STN VA  0748   40      40/ 10/ 10 1026.7R
S CRANEY ISL VA  0748   42      40/  5/  8 1025.5R
CAPE HENRY BUOY  0742      47                N/A     3/11   2/11
OFFSHORE WE BUOY 0751      50                N/A     3/11   2/11
64NM E OF VA BCH 0750   48 58  340/ 19/ 23 1024.7R   4/11   3/11
DUCK PIER NC     0748   44 47  320/  7/  8 1025.0R
44100 DUCK FRF   0735      46                N/A     3/11   2/11
44056 DUCK FRF   0730      47                N/A     3/11   2/11
OREGON INLET NC  0736   44 49  280/  7/  9 1025.2F
HATTERAS NC      0748      55  290/ 12/ 14 1025.1R
DIAMOND SHLS NC  0750   52 75  300/ 16/ 21 1025.1S   4/10   3/10
CAPE LOOKOUT NC  0700   49     300/  6/  7 1025.4F
$$




USA.gov is the U.S. government's official web portal to all federal, state and local government web resources and services.